Location: *
(43.7000°S, 168.7000°W)
Time: 13:46:29
(UTC+00:00)

CSL-04 Debris - Pass Details

Date: 07 July 2020
Orbit: 827 x 848 km, 98.9° (Epoch: 03 August)

Event Time Altitude Azimuth Distance (km) Brightness Sun altitude
Rises 18:02:22 0° 15° (NNE) 3,373 7.9 -8.1°
Reaches altitude 10° 18:04:43 10° 15° (NNE) 2,444 7.2 -7.7°
Maximum altitude 18:10:09 87° 284° (WNW) 847 4.2 -6.8°
Drops below altitude 10° 18:15:38 10° 195° (SSW) 2,467 6.3 -5.9°
Sets 18:18:01 0° 194° (SSW) 3,407 7.0 -5.5°
